Weather History for Defiance, OH

Change the Weather History Date:

Tuesday, November 12, 2013

  Actual Average Record
Temperature  
Mean Temperature 28 °F -  
Max Temperature 36 °F 46 °F 73 °F (1949)
Min Temperature 21 °F 31 °F 17 °F (1976)
Degree Days  
Heating Degree Days 36    
Moisture  
Dew Point 19 °F    
Average Humidity 68    
Maximum Humidity 82    
Minimum Humidity 54    
Precipitation  
Precipitation 0.00 in - - ()
Sea Level Pressure  
Sea Level Pressure 30.54 in    
Wind  
Wind Speed 8 mph (NW)    
Max Wind Speed 15 mph    
Max Gust Speed 20 mph    
Visibility 10 miles    
Events      
Averages and records for this station are not official NWS values.
T = Trace of Precipitation, MM = Missing Value Source: NWS Daily Summary

Daily Weather History Graph

Daily Weather History Graph

Search for Another Location

Airport:

Trip Planner

Search our weather history database for the weather conditions in past years. The results will help you decide how hot, cold, wet, or windy it might be!

Date:

Astronomy

Nov. 12, 2013 Rise Set
Actual Time 7:22 AM EST 5:20 PM EST
Civil Twilight 6:53 AM EST 5:50 PM EST
Nautical Twilight 6:19 AM EST 6:23 PM EST
Astronomical Twilight 5:47 AM EST 6:55 PM EST
Moon 2:37 PM EST (11/12) 2:08 AM EST (11/12)
Length of Visible Light 10h 56m
Length of Day
9h 57m
Waxing Gibbous, 76% of the Moon is Illuminated
Nov 12
Waxing Gibbous
Nov 17
Full
Nov 25
Last Quarter
Dec 2
New
Dec 9
First Quarter

Hourly Weather History & Observations

Time (EST) Temp. Windchill Dew Point Humidity Pressure Visibility Wind Dir Wind Speed Gust Speed Precip Events Conditions
12:53 AM 28.0 °F 19.3 °F 19.0 °F 69% 30.38 in 10.0 mi NNW 9.2 mph - N/A   Clear
1:53 AM 28.0 °F 19.3 °F 19.0 °F 69% 30.40 in 10.0 mi NNW 9.2 mph - N/A   Clear
2:53 AM 26.1 °F 17.6 °F 18.0 °F 71% 30.42 in 10.0 mi NNW 8.1 mph - N/A   Clear
3:53 AM 25.0 °F 14.8 °F 18.0 °F 75% 30.44 in 10.0 mi NNW 10.4 mph - N/A   Clear
4:53 AM 24.1 °F 15.2 °F 17.1 °F 75% 30.47 in 10.0 mi NNW 8.1 mph - N/A   Clear
5:53 AM 23.0 °F 14.7 °F 17.1 °F 78% 30.49 in 10.0 mi NNW 6.9 mph - N/A   Clear
6:53 AM 21.9 °F 14.5 °F 17.1 °F 82% 30.51 in 10.0 mi NW 5.8 mph - N/A   Clear
7:53 AM 21.9 °F 15.7 °F 17.1 °F 82% 30.55 in 10.0 mi NW 4.6 mph - N/A   Clear
8:53 AM 26.1 °F 17.6 °F 19.0 °F 75% 30.56 in 10.0 mi NNW 8.1 mph - N/A   Clear
9:53 AM 28.9 °F 20.4 °F 19.9 °F 69% 30.58 in 10.0 mi North 9.2 mph - N/A   Clear
10:53 AM 30.9 °F 22.8 °F 21.9 °F 69% 30.59 in 10.0 mi North 9.2 mph - N/A   Clear
11:53 AM 33.1 °F 23.9 °F 21.9 °F 64% 30.59 in 10.0 mi NNW 12.7 mph 19.6 mph N/A   Partly Cloudy
12:53 PM 34.0 °F 24.2 °F 21.0 °F 59% 30.58 in 10.0 mi North 15.0 mph - N/A   Partly Cloudy
1:53 PM 33.1 °F 27.7 °F 19.0 °F 56% 30.58 in 10.0 mi Variable 5.8 mph - N/A   Mostly Cloudy
2:53 PM 36.0 °F 30.3 °F 21.0 °F 55% 30.58 in 10.0 mi NW 6.9 mph - N/A   Overcast
3:53 PM 35.1 °F 27.4 °F 19.9 °F 54% 30.58 in 10.0 mi NW 10.4 mph - N/A   Overcast
4:53 PM 33.1 °F 26.9 °F 19.0 °F 56% 30.58 in 10.0 mi WNW 6.9 mph - N/A   Mostly Cloudy
5:53 PM 30.9 °F 26.2 °F 19.9 °F 64% 30.58 in 10.0 mi Variable 4.6 mph - N/A   Partly Cloudy
6:53 PM 30.0 °F 26.5 °F 21.0 °F 69% 30.58 in 10.0 mi Variable 3.5 mph - N/A   Scattered Clouds
7:53 PM 30.0 °F 24.1 °F 17.1 °F 59% 30.61 in 10.0 mi WNW 5.8 mph - N/A   Clear
8:53 PM 28.9 °F - 18.0 °F 64% 30.60 in 10.0 mi Calm Calm - N/A   Overcast
9:53 PM 28.9 °F 25.2 °F 19.0 °F 67% 30.61 in 10.0 mi WSW 3.5 mph - N/A   Overcast
10:53 PM 27.0 °F 21.6 °F 19.0 °F 72% 30.60 in 10.0 mi Variable 4.6 mph - N/A   Clear
11:53 PM 26.1 °F 20.5 °F 18.0 °F 71% 30.59 in 10.0 mi WSW 4.6 mph - N/A   Clear